QPF
0.00 0.00 0.00 0.00 0.00 0.00 0.00 0.00 0.00 0.00 0.00 0.00 0.00 0.00 0.00 0.00 0.00 0.00 0.00 0.00 0.00 0.00 0.00 0.00 0.00 0.00 0.00 0.00 0.00 0.00 0.00 0.00 0.00 0.00 0.00 0.00 0.00 0.00 0.00 0.00 0.00 0.00 0.00 0.00 0.00 0.00 0.00 0.00 0.00 0.00 0.00 0.00 0.00 0.00 0.00 0.00 0.00 0.00 0.00 0.00 0.00 0.00 0.00
0.00 0.00 0.00 0.00 0.00 0.00 0.00 0.00 0.00 0.00 0.00 0.00 0.00 0.00 0.00 0.00 0.00 0.00 0.00 0.00 0.00 0.00 0.00 0.00 0.00 0.00 0.00 0.00 0.00 0.00 0.00 0.00 0.00 0.00 0.00 0.00 0.00 0.00 0.00 0.00 0.00 0.00 0.00 0.00 0.00 0.00 0.00 0.00 0.00 0.00 0.00 0.00 0.00 0.00 0.00 0.00 0.00 0.00 0.00 0.00 0.00 0.00 0.00
0.00 0.00 0.00 0.00 0.00 0.00 0.00 0.00 0.00 0.00 0.00 0.00 0.00 0.00 0.00 0.00 0.00 0.00 0.00 0.00 0.00 0.00 0.00 0.00 0.00 0.00 0.00 0.00 0.00 0.00 0.00 0.00 0.00 0.00 0.00 0.00 0.00 0.00 0.00 0.00 0.00 0.00 0.00 0.00 0.00 0.00 0.00 0.00 0.00 0.00 0.00 0.00 0.00 0.00 0.00 0.00 0.00 0.00 0.00 0.00 0.00 0.00 0.00
0.00 0.00 0.00 0.00 0.00 0.00 0.00 0.00 0.00 0.00 0.00 0.00 0.00 0.00 0.00 0.00 0.00 0.00 0.00 0.00 0.00 0.00 0.00 0.00 0.00 0.00 0.00 0.00 0.00 0.00 0.00 0.00 0.00 0.00 0.00 0.00 0.00 0.00 0.00 0.00 0.01 0.00 0.00 0.00 0.00 0.00 0.00 0.00 0.00 0.00 0.00 0.00 0.00 0.00 0.00 0.00 0.00 0.00 0.00 0.00 0.00 0.00 0.00
0.00 0.00 0.00 0.00 0.00 0.00 0.00 0.00 0.00 0.00 0.00 0.00 0.00 0.00 0.00 0.00 0.00 0.00 0.00 0.00 0.00 0.00 0.00 0.00 0.00 0.00 0.00 0.00 0.00 0.00 0.00 0.00 0.00 0.00 0.00 0.00 0.00 0.00 0.00 0.00 0.00 0.00 0.00 0.00 0.00 0.00 0.00 0.00 0.00 0.00 0.00 0.00 0.00 0.00 0.00 0.00 0.00 0.00 0.00 0.00 0.00 0.00 0.00
0.00 0.00 0.00 0.00 0.00 0.00 0.00 0.00 0.00 0.00 0.00 0.00 0.00 0.00 0.00 0.00 0.00 0.00 0.00 0.00 0.00 0.00 0.00 0.00 0.00 0.00 0.00 0.00 0.00 0.00 0.00 0.00 0.00 0.00 0.00 0.00 0.00 0.00 0.00 0.02 0.00 0.00 0.00 0.00 0.00 0.00 0.00 0.00 0.00 0.00 0.00 0.00 0.00 0.00 0.00 0.00 0.00 0.00 0.00 0.00 0.00 0.00 0.00
0.00 0.00 0.00 0.00 0.00 0.00 0.00 0.00 0.00 0.00 0.00 0.00 0.00 0.00 0.00 0.00 0.00 0.00 0.00 0.00 0.00 0.00 0.00 0.00 0.00 0.00 0.00 0.00 0.00 0.00 0.00 0.00 0.00 0.00 0.00 0.00 0.00 0.00 0.00 0.01 0.00 0.00 0.00 0.00 0.00 0.00 0.00 0.00 0.00 0.00 0.00 0.00 0.00 0.00 0.00 0.00 0.00 0.00 0.00 0.00 0.00 0.00 0.00
0.00 0.00 0.00 0.00 0.00 0.00 0.00 0.00 0.00 0.00 0.00 0.00 0.00 0.00 0.00 0.00 0.00 0.00 0.00 0.00 0.00 0.00 0.00 0.00 0.00 0.00 0.00 0.00 0.00 0.00 0.00 0.00 0.00 0.00 0.00 0.00 0.00 0.00 0.00 0.00 0.00 0.00 0.00 0.00 0.00 0.00 0.00 0.00 0.00 0.00 0.00 0.00 0.00 0.00 0.00 0.00 0.00 0.00 0.00 0.00 0.01 0.00 0.00
0.00 0.00 0.00 0.00 0.00 0.00 0.00 0.00 0.00 0.00 0.00 0.00 0.00 0.00 0.00 0.00 0.00 0.00 0.00 0.00 0.00 0.00 0.00 0.00 0.00 0.00 0.00 0.00 0.00 0.00 0.00 0.00 0.00 0.00 0.00 0.00 0.00 0.00 0.00 0.00 0.00 0.00 0.00 0.00 0.00 0.00 0.00 0.00 0.00 0.00 0.00 0.00 0.00 0.00 0.00 0.00 0.00 0.00 0.01 0.00 0.00 0.00 0.00
0.00 0.00 0.00 0.00 0.00 0.00 0.00 0.00 0.00 0.00 0.00 0.00 0.00 0.00 0.00 0.00 0.00 0.00 0.00 0.00 0.00 0.00 0.00 0.00 0.00 0.00 0.00 0.00 0.00 0.00 0.00 0.00 0.00 0.00 0.00 0.00 0.00 0.00 0.00 0.00 0.00 0.00 0.00 0.00 0.00 0.00 0.00 0.00 0.00 0.00 0.00 0.00 0.00 0.00 0.00 0.00 0.00 0.00 0.00 0.03 0.03 0.09 0.04
0.00 0.00 0.00 0.00 0.00 0.00 0.00 0.00 0.00 0.00 0.00 0.00 0.00 0.00 0.00 0.00 0.00 0.00 0.00 0.00 0.00 0.00 0.00 0.00 0.00 0.00 0.00 0.00 0.00 0.00 0.00 0.00 0.00 0.00 0.00 0.00 0.00 0.00 0.00 0.00 0.00 0.00 0.00 0.00 0.00 0.00 0.00 0.00 0.00 0.00 0.00 0.00 0.00 0.00 0.00 0.00 0.00 0.00 0.00 0.00 0.00 0.00 0.04
0.00 0.00 0.00 0.00 0.00 0.00 0.00 0.00 0.00 0.00 0.00 0.00 0.00 0.00 0.00 0.00 0.00 0.00 0.00 0.00 0.00 0.00 0.00 0.00 0.00 0.00 0.00 0.00 0.00 0.00 0.00 0.00 0.00 0.00 0.00 0.00 0.00 0.00 0.00 0.00 0.00 0.00 0.00 0.00 0.00 0.00 0.00 0.00 0.00 0.00 0.00 0.00 0.00 0.00 0.00 0.00 0.00 0.00 0.02 0.00 0.00 0.00 0.01
0.00 0.00 0.00 0.00 0.00 0.00 0.00 0.00 0.00 0.00 0.00 0.00 0.00 0.00 0.00 0.00 0.00 0.00 0.00 0.00 0.00 0.00 0.00 0.00 0.00 0.00 0.00 0.00 0.00 0.00 0.00 0.00 0.00 0.00 0.00 0.00 0.01 0.00 0.00 0.00 0.00 0.00 0.00 0.00 0.00 0.00 0.00 0.00 0.00 0.00 0.00 0.00 0.00 0.00 0.00 0.00 0.00 0.00 0.00 0.00 0.01 0.02 0.01
0.00 0.00 0.00 0.00 0.00 0.00 0.00 0.00 0.00 0.00 0.00 0.00 0.00 0.00 0.00 0.00 0.00 0.00 0.00 0.00 0.00 0.00 0.00 0.00 0.00 0.00 0.00 0.00 0.00 0.00 0.00 0.00 0.00 0.00 0.00 0.00 0.00 0.01 0.01 0.00 0.00 0.00 0.00 0.00 0.00 0.00 0.00 0.00 0.00 0.00 0.00 0.00 0.00 0.00 0.00 0.00 0.00 0.00 0.00 0.00 0.00 0.00 0.01
0.00 0.00 0.00 0.00 0.00 0.00 0.00 0.00 0.00 0.00 0.00 0.00 0.00 0.00 0.00 0.00 0.00 0.00 0.00 0.00 0.00 0.00 0.00 0.00 0.00 0.00 0.00 0.00 0.00 0.00 0.00 0.00 0.00 0.00 0.00 0.00 0.00 0.00 0.00 0.00 0.00 0.00 0.00 0.00 0.00 0.00 0.00 0.00 0.00 0.00 0.00 0.00 0.00 0.00 0.00 0.00 0.00 0.00 0.00 0.00 0.00 0.00 0.00
0.00 0.00 0.00 0.00 0.00 0.00 0.00 0.00 0.00 0.00 0.00 0.00 0.00 0.00 0.00 0.00 0.00 0.00 0.00 0.00 0.00 0.00 0.00 0.00 0.00 0.00 0.00 0.00 0.00 0.00 0.00 0.00 0.00 0.00 0.00 0.00 0.00 0.00 0.00 0.00 0.00 0.00 0.00 0.00 0.00 0.00 0.00 0.00 0.00 0.00 0.00 0.00 0.00 0.00 0.00 0.00 0.00 0.00 0.00 0.00 0.01 0.01 0.01
0.00 0.00 0.00 0.01 0.00 0.01 0.01 0.00 0.00 0.00 0.00 0.00 0.00 0.00 0.00 0.00 0.00 0.00 0.00 0.00 0.00 0.00 0.00 0.00 0.00 0.00 0.00 0.00 0.00 0.00 0.00 0.00 0.00 0.00 0.00 0.00 0.00 0.00 0.00 0.00 0.00 0.00 0.00 0.00 0.00 0.00 0.00 0.00 0.00 0.00 0.00 0.00 0.00 0.00 0.00 0.00 0.00 0.00 0.00 0.00 0.00 0.00 0.01
0.00 0.00 0.00 0.01 0.03 0.02 0.00 0.00 0.00 0.00 0.00 0.00 0.00 0.00 0.00 0.00 0.00 0.00 0.00 0.00 0.00 0.00 0.00 0.00 0.00 0.00 0.00 0.00 0.00 0.00 0.00 0.00 0.00 0.00 0.00 0.00 0.00 0.00 0.00 0.00 0.00 0.00 0.00 0.00 0.00 0.00 0.00 0.00 0.00 0.00 0.00 0.00 0.00 0.00 0.00 0.00 0.00 0.00 0.00 0.00 0.00 0.00 0.00
0.00 0.00 0.00 0.01 0.05 0.00 0.00 0.00 0.00 0.00 0.00 0.00 0.00 0.00 0.00 0.00 0.00 0.00 0.00 0.00 0.00 0.00 0.00 0.00 0.00 0.00 0.00 0.00 0.00 0.00 0.00 0.00 0.00 0.00 0.00 0.00 0.00 0.00 0.00 0.00 0.00 0.00 0.00 0.00 0.00 0.00 0.00 0.00 0.00 0.00 0.00 0.00 0.00 0.00 0.00 0.00 0.00 0.00 0.00 0.00 0.00 0.00 0.00
0.00 0.02 0.10 0.03 0.00 0.00 0.00 0.00 0.00 0.00 0.00 0.00 0.00 0.00 0.00 0.00 0.00 0.00 0.00 0.00 0.00 0.00 0.00 0.00 0.00 0.00 0.00 0.00 0.00 0.00 0.00 0.00 0.00 0.00 0.00 0.00 0.00 0.00 0.00 0.00 0.00 0.00 0.00 0.00 0.00 0.00 0.00 0.00 0.00 0.00 0.00 0.00 0.00 0.00 0.00 0.00 0.00 0.00 0.00 0.00 0.00 0.00 0.00
0.01 0.00 0.00 0.00 0.00 0.00 0.00 0.00 0.00 0.01 0.01 0.01 0.00 0.03 0.00 0.00 0.00 0.00 0.00 0.00 0.00 0.00 0.00 0.00 0.00 0.00 0.00 0.00 0.00 0.00 0.00 0.00 0.00 0.00 0.00 0.00 0.00 0.00 0.00 0.00 0.00 0.00 0.00 0.00 0.00 0.00 0.00 0.00 0.00 0.00 0.00 0.00 0.00 0.00 0.00 0.00 0.00 0.00 0.00 0.00 0.00 0.00 0.00
0.00 0.01 0.01 0.00 0.00 0.00 0.00 0.00 0.01 0.00 0.00 0.00 0.00 0.00 0.00 0.00 0.00 0.00 0.00 0.00 0.00 0.00 0.00 0.00 0.00 0.00 0.00 0.00 0.00 0.00 0.00 0.00 0.00 0.00 0.00 0.00 0.00 0.00 0.00 0.00 0.00 0.00 0.00 0.00 0.00 0.00 0.00 0.00 0.00 0.00 0.00 0.00 0.00 0.00 0.00 0.00 0.00 0.00 0.00 0.00 0.00 0.00 0.00
0.00 0.00 0.02 0.00 0.01 0.00 0.07 0.00 0.00 0.00 0.00 0.00 0.00 0.00 0.01 0.00 0.00 0.00 0.00 0.00 0.00 0.00 0.00 0.00 0.00 0.00 0.00 0.00 0.00 0.00 0.00 0.00 0.00 0.00 0.00 0.00 0.00 0.00 0.00 0.00 0.00 0.00 0.00 0.00 0.00 0.00 0.00 0.00 0.00 0.00 0.00 0.00 0.00 0.00 0.00 0.00 0.00 0.00 0.00 0.00 0.00 0.00 0.00
0.01 0.00 0.01 0.00 0.01 0.01 0.04 0.01 0.02 0.01 0.00 0.00 0.00 0.07 0.02 0.00 0.00 0.00 0.00 0.00 0.00 0.00 0.00 0.00 0.00 0.00 0.01 0.00 0.00 0.00 0.00 0.00 0.00 0.00 0.00 0.00 0.00 0.00 0.00 0.00 0.00 0.00 0.00 0.00 0.00 0.00 0.00 0.00 0.00 0.00 0.00 0.00 0.00 0.00 0.00 0.00 0.00 0.00 0.00 0.00 0.00 0.00 0.00
0.00 0.01 0.01 0.00 0.00 0.00 0.00 0.00 0.00 0.00 0.00 0.00 0.06 0.00 0.00 0.00 0.00 0.00 0.00 0.00 0.00 0.00 0.00 0.00 0.00 0.00 0.00 0.00 0.00 0.00 0.00 0.00 0.00 0.00 0.00 0.00 0.00 0.00 0.00 0.00 0.00 0.00 0.00 0.00 0.00 0.00 0.00 0.00 0.00 0.00 0.00 0.00 0.00 0.00 0.00 0.00 0.00 0.00 0.00 0.00 0.00 0.00 0.00
0.00 0.00 0.00 0.00 0.01 0.01 0.00 0.00 0.00 0.00 0.00 0.03 0.12 0.08 0.00 0.01 0.02 0.00 0.01 0.00 0.00 0.00 0.00 0.00 0.00 0.00 0.00 0.00 0.00 0.00 0.00 0.00 0.00 0.00 0.00 0.00 0.00 0.00 0.00 0.00 0.00 0.00 0.00 0.00 0.00 0.00 0.00 0.00 0.00 0.00 0.00 0.00 0.00 0.00 0.00 0.00 0.00 0.00 0.00 0.00 0.00 0.00 0.00
0.00 0.01 0.01 0.01 0.03 0.09 0.00 0.00 0.03 0.00 0.00 0.05 0.02 0.00 0.03 0.01 0.00 0.03 0.01 0.00 0.00 0.00 0.00 0.00 0.00 0.00 0.00 0.00 0.00 0.00 0.00 0.00 0.00 0.00 0.00 0.00 0.00 0.00 0.00 0.00 0.00 0.00 0.00 0.00 0.00 0.00 0.00 0.00 0.00 0.00 0.00 0.00 0.00 0.00 0.00 0.00 0.00 0.00 0.00 0.00 0.00 0.00 0.00
0.00 0.00 0.01 0.00 0.00 0.02 0.00 0.00 0.00 0.00 0.00 0.00 0.00 0.02 0.05 0.03 0.02 0.07 0.13 0.03 0.01 0.00 0.00 0.02 0.02 0.00 0.00 0.00 0.00 0.00 0.02 0.00 0.00 0.00 0.00 0.00 0.00 0.00 0.00 0.00 0.00 0.00 0.00 0.00 0.00 0.00 0.00 0.00 0.00 0.00 0.00 0.00 0.00 0.00 0.00 0.00 0.00 0.00 0.00 0.00 0.00 0.00 0.00
0.00 0.01 0.02 0.03 0.00 0.00 0.00 0.00 0.00 0.00 0.00 0.00 0.00 0.01 0.03 0.07 0.08 0.02 0.06 0.03 0.01 0.01 0.00 0.01 0.02 0.03 0.03 0.04 0.02 0.00 0.00 0.00 0.00 0.00 0.00 0.00 0.00 0.00 0.00 0.00 0.00 0.00 0.00 0.00 0.00 0.00 0.00 0.00 0.00 0.00 0.00 0.00 0.00 0.00 0.00 0.00 0.00 0.00 0.00 0.00 0.00 0.01 0.00
0.00 0.00 0.00 0.00 0.00 0.00 0.00 0.00 0.00 0.00 0.00 0.04 0.00 0.02 0.04 0.03 0.04 0.03 0.06 0.10 0.00 0.00 0.01 0.03 0.05 0.10 0.07 0.03 0.00 0.00 0.00 0.00 0.00 0.00 0.00 0.00 0.00 0.00 0.00 0.00 0.00 0.00 0.00 0.00 0.00 0.00 0.00 0.00 0.00 0.00 0.00 0.00 0.00 0.00 0.00 0.00 0.00 0.00 0.02 0.01 0.00 0.00 0.00
0.00 0.02 0.00 0.00 0.00 0.00 0.00 0.00 0.00 0.01 0.04 0.03 0.05 0.01 0.12 0.02 0.13 0.15 0.06 0.14 0.11 0.02 0.08 0.03 0.08 0.18 0.10 0.00 0.00 0.00 0.00 0.00 0.00 0.00 0.00 0.00 0.00 0.00 0.00 0.00 0.00 0.00 0.00 0.00 0.00 0.00 0.00 0.00 0.00 0.00 0.00 0.00 0.00 0.00 0.00 0.00 0.01 0.00 0.01 0.01 0.01 0.00 0.00
0.03 0.05 0.00 0.03 0.00 0.00 0.00 0.00 0.00 0.00 0.00 0.00 0.00 0.02 0.01 0.01 0.16 0.12 0.11 0.28 0.42 0.17 0.03 0.05 0.02 0.01 0.04 0.05 0.05 0.03 0.03 0.00 0.00 0.00 0.00 0.00 0.00 0.00 0.00 0.00 0.00 0.00 0.00 0.00 0.00 0.00 0.00 0.00 0.00 0.00 0.00 0.00 0.00 0.00 0.00 0.00 0.00 0.00 0.00 0.00 0.00 0.00 0.00
0.19 0.01 0.00 0.00 0.00 0.00 0.00 0.02 0.00 0.03 0.00 0.00 0.00 0.00 0.01 0.03 0.01 0.02 0.02 0.02 0.20 0.20 0.01 0.00 0.00 0.00 0.00 0.00 0.00 0.01 0.06 0.00 0.00 0.00 0.00 0.00 0.00 0.00 0.00 0.00 0.00 0.00 0.00 0.00 0.00 0.00 0.00 0.00 0.00 0.00 0.00 0.00 0.00 0.00 0.00 0.00 0.00 0.00 0.00 0.00 0.00 0.00 0.00
0.01 0.03 0.00 0.00 0.00 0.00 0.00 0.04 0.01 0.26 0.33 0.02 0.02 0.00 0.00 0.00 0.00 0.01 0.00 0.01 0.00 0.00 0.01 0.01 0.01 0.00 0.00 0.00 0.00 0.00 0.00 0.01 0.00 0.00 0.00 0.00 0.00 0.00 0.00 0.00 0.00 0.00 0.00 0.00 0.00 0.00 0.00 0.00 0.00 0.00 0.00 0.00 0.00 0.00 0.00 0.00 0.00 0.00 0.00 0.00 0.00 0.00 0.00
0.11 0.00 0.00 0.00 0.00 0.00 0.01 0.03 0.03 0.01 0.12 0.03 0.03 0.04 0.03 0.00 0.00 0.00 0.00 0.03 0.07 0.02 0.00 0.00 0.00 0.00 0.00 0.00 0.00 0.00 0.00 0.00 0.00 0.00 0.00 0.00 0.00 0.00 0.00 0.00 0.00 0.00 0.00 0.00 0.00 0.00 0.00 0.00 0.00 0.00 0.00 0.00 0.00 0.00 0.00 0.00 0.00 0.00 0.00 0.00 0.00 0.00 0.00
0.01 0.01 0.00 0.00 0.00 0.00 0.02 0.02 0.01 0.01 0.17 0.19 0.14 0.00 0.01 0.01 0.01 0.01 0.01 0.00 0.00 0.00 0.01 0.00 0.00 0.00 0.00 0.00 0.00 0.00 0.00 0.00 0.00 0.01 0.00 0.00 0.00 0.00 0.00 0.00 0.00 0.00 0.00 0.00 0.00 0.01 0.00 0.00 0.00 0.00 0.00 0.00 0.00 0.00 0.00 0.00 0.00 0.00 0.00 0.00 0.00 0.00 0.02
0.03 0.01 0.00 0.00 0.00 0.03 0.05 0.09 0.06 0.05 0.01 0.06 0.13 0.17 0.06 0.07 0.10 0.00 0.00 0.00 0.00 0.00 0.01 0.00 0.00 0.00 0.00 0.00 0.00 0.00 0.00 0.00 0.00 0.00 0.00 0.00 0.00 0.00 0.00 0.00 0.00 0.00 0.00 0.00 0.00 0.00 0.01 0.00 0.00 0.00 0.00 0.00 0.00 0.00 0.01 0.01 0.01 0.01 0.02 0.01 0.02 0.03 0.02
MSLP
999.35 999.71 999.59 999.79 999.03 1005.59 1001.59 1001.91 1004.35 1002.63 1000.55 1002.83 1005.63 1005.11 1004.07 1004.71 1006.75 1007.35 1003.67 1004.03 1002.23 1000.07 999.19 998.59 998.67 998.87 998.47 997.87 998.11 998.15 998.15 997.79 997.79 998.27 998.39 999.79 1000.35 1000.47 1000.59 1000.99 1001.31 1001.59 1001.79 1001.99 1002.03 1002.43 1002.87 1003.31 1003.79 1004.07 1004.43 1004.79 1005.31 1005.83 1006.39 1006.95 1007.31 1007.59 1007.95 1008.31 1008.63 1008.87 1009.19
998.95 997.91 998.75 999.27 998.67 998.47 1000.51 1004.11 1002.19 999.83 998.83 1000.23 1003.87 1008.11 1006.71 1007.51 1009.23 1007.23 1004.31 1005.59 1004.23 1003.83 1005.19 999.03 999.83 999.55 999.31 999.71 998.99 998.07 997.47 997.15 997.67 997.75 998.71 998.91 999.95 999.79 999.63 1000.11 1000.47 1000.83 1001.07 1001.35 1001.47 1001.63 1001.91 1002.35 1002.83 1003.39 1003.87 1004.19 1004.63 1005.07 1005.59 1006.39 1006.87 1007.39 1007.51 1007.83 1008.19 1008.47 1008.91
999.07 998.15 999.11 1000.75 998.95 997.75 999.71 1000.27 997.55 1002.47 1005.31 1006.27 1003.23 1005.71 1009.47 1009.83 1009.67 1007.91 1005.07 1003.79 1003.11 1002.35 1002.67 1000.47 1001.31 1000.35 999.59 999.71 998.79 998.55 998.27 998.03 997.71 997.83 998.55 998.67 998.59 999.07 999.59 1000.07 1000.19 1000.47 1000.75 1000.99 1001.07 1001.11 1001.23 1001.71 1002.23 1002.75 1003.23 1003.67 1004.15 1004.63 1004.95 1005.43 1006.19 1006.55 1006.95 1007.19 1007.55 1007.91 1008.31
998.47 999.23 1000.27 1004.19 1002.03 998.95 997.91 997.55 998.43 997.47 1000.27 1002.67 1005.67 1004.39 1004.31 1005.67 1008.35 1008.31 1006.95 1005.07 1005.83 1001.07 999.95 999.87 1000.71 999.47 998.47 998.71 998.63 998.51 997.99 997.67 997.39 996.83 997.39 998.03 998.47 999.27 999.31 999.67 999.91 999.67 999.83 999.99 1000.19 1000.47 1000.83 1001.31 1001.91 1002.35 1002.79 1003.11 1003.67 1004.07 1004.63 1005.03 1005.43 1005.99 1006.47 1006.87 1007.15 1007.75 1007.95
998.67 1002.39 1000.31 1001.27 1000.47 1001.79 1001.47 1001.15 1000.99 999.59 1000.23 998.71 1000.51 1001.15 1002.91 1005.47 1006.79 1006.91 1007.43 1007.71 1004.35 999.87 996.75 998.07 999.03 998.03 997.39 997.23 997.83 997.83 997.71 996.59 995.79 995.55 996.19 996.87 997.87 999.51 999.95 999.95 999.35 999.15 999.23 999.27 999.51 999.71 1000.03 1000.47 1001.15 1001.67 1002.07 1002.51 1002.91 1003.43 1004.11 1004.47 1005.15 1005.59 1006.03 1006.35 1006.75 1007.27 1007.51
1001.23 1000.03 997.91 998.43 998.63 998.71 999.71 1000.35 1001.15 999.87 1000.83 1002.87 1004.51 1004.19 1000.47 1002.07 1004.19 1006.11 1006.59 1006.79 1002.39 998.11 995.51 996.35 997.03 996.59 996.31 996.43 996.87 997.19 997.19 996.75 996.03 995.27 995.55 996.11 997.63 998.79 999.47 999.87 998.51 998.23 998.43 998.63 998.95 999.47 999.83 1000.35 1000.83 1001.27 1001.31 1001.83 1002.39 1002.87 1003.15 1003.79 1004.31 1004.91 1005.87 1006.07 1006.43 1006.75 1007.11
1000.07 998.91 996.91 996.27 996.87 997.07 997.67 998.31 999.87 998.71 998.75 999.39 1002.67 1006.23 1004.19 1001.79 1001.11 1001.59 1002.71 1004.39 1002.95 996.87 995.15 994.99 995.35 995.91 995.59 995.35 995.63 996.07 995.95 995.63 995.11 994.99 994.79 995.07 996.15 997.51 998.15 999.39 999.59 997.83 997.79 997.99 998.35 999.11 999.63 999.83 1000.19 1000.59 1000.91 1001.23 1001.71 1002.15 1002.59 1003.07 1003.71 1004.15 1004.59 1005.51 1005.87 1006.31 1006.87
997.03 996.83 996.35 995.91 996.51 997.59 998.55 997.67 997.15 998.19 999.55 998.67 1000.07 1001.39 1000.87 1001.91 1002.27 1003.95 1004.07 1004.83 1002.27 996.75 994.99 994.91 994.75 995.19 994.91 994.63 995.23 996.19 995.99 995.59 995.31 995.19 995.07 995.79 996.15 996.51 996.95 998.15 999.03 997.31 997.23 997.59 998.11 998.91 999.43 999.63 1000.07 1000.39 1000.51 1000.71 1001.07 1001.51 1001.91 1002.27 1002.99 1003.47 1004.19 1004.47 1005.19 1005.99 1006.67
1001.55 999.27 998.31 998.39 996.55 997.51 998.71 998.47 997.23 996.91 997.23 997.75 997.43 998.07 998.67 1001.99 1001.51 1001.67 1003.67 1005.75 1002.83 997.83 995.15 995.31 995.43 996.07 996.47 996.31 995.43 995.23 996.03 995.67 995.23 994.91 995.91 996.23 996.27 996.47 996.87 997.39 997.63 997.07 997.11 997.75 998.07 998.23 998.67 999.03 999.27 999.87 1000.23 1000.43 1000.63 1000.99 1001.23 1001.67 1002.07 1002.59 1003.23 1003.71 1004.67 1005.23 1005.95
1005.83 1005.03 1004.19 1002.91 1000.95 999.11 998.15 997.63 997.15 996.63 997.71 998.51 999.27 1001.11 1001.35 1003.75 1001.51 1000.59 1002.39 1003.31 999.87 996.83 996.39 996.91 996.63 996.55 996.99 995.91 995.15 994.47 994.75 995.39 995.35 994.79 994.91 995.67 996.23 996.55 996.83 996.95 997.19 997.11 997.07 997.23 997.63 997.95 998.35 998.63 998.91 999.39 999.83 1000.07 1000.19 1000.39 1000.71 1000.79 1001.35 1001.91 1002.47 1002.99 1003.63 1004.27 1005.07
1001.19 1000.35 999.11 996.99 996.87 997.75 999.91 998.91 998.43 997.71 997.19 996.83 997.15 997.99 1001.15 1002.67 1000.91 1001.31 1000.99 1001.11 1000.03 998.95 997.71 997.39 997.43 997.27 997.35 996.99 995.79 995.35 995.31 995.27 995.31 995.31 995.27 995.67 996.03 996.31 996.59 996.95 996.95 996.99 997.31 997.43 997.47 997.63 997.87 998.07 998.47 998.87 999.31 999.75 999.83 1000.11 1000.39 1000.39 1000.59 1001.19 1001.79 1002.55 1003.11 1003.83 1004.51
998.11 997.19 997.79 996.43 996.79 998.39 997.99 998.55 998.43 997.79 997.43 997.23 997.91 999.35 1001.03 999.39 1000.99 1002.27 999.79 999.63 1000.43 999.23 997.71 997.19 997.43 996.43 996.51 996.71 996.47 996.23 995.91 995.43 994.75 994.87 995.87 996.27 996.67 996.75 996.87 997.11 997.23 997.39 997.15 997.15 997.47 997.63 997.67 997.91 998.03 998.39 998.71 999.07 999.43 999.71 1000.11 1000.11 1000.23 1000.67 1001.43 1002.19 1002.83 1003.63 1004.47
998.31 997.23 996.51 996.23 996.71 997.03 996.75 996.75 997.23 997.75 997.55 997.39 998.47 998.71 997.95 998.35 1000.35 1000.63 998.55 999.39 1000.35 998.75 997.35 996.67 995.87 995.95 996.39 996.23 996.07 995.51 995.15 995.11 994.83 994.83 995.59 996.39 997.11 997.39 997.67 997.23 997.23 997.31 997.43 997.23 997.19 997.31 997.43 997.51 997.91 998.23 998.59 998.91 999.11 999.27 999.43 999.71 999.79 1000.15 1000.55 1001.35 1002.35 1003.23 1003.87
998.03 997.87 997.47 996.59 997.03 997.03 997.03 996.19 996.27 996.75 997.27 997.67 997.47 997.19 996.79 997.19 998.11 997.67 997.51 998.51 998.83 997.47 996.51 995.99 995.47 994.31 994.39 994.31 993.99 994.63 995.39 995.67 995.31 994.99 995.35 995.39 996.07 997.59 997.75 997.23 996.99 997.07 997.11 997.03 996.99 997.23 997.39 997.51 997.79 998.07 998.43 998.63 998.79 999.07 999.27 999.39 999.67 999.63 1000.07 1001.07 1002.19 1002.91 1003.51
998.19 997.15 997.07 997.19 997.19 996.83 997.43 996.83 996.35 996.11 996.15 996.67 996.91 997.39 996.83 996.83 997.11 996.87 996.99 997.55 997.71 995.15 994.83 995.11 994.55 994.23 993.71 993.87 994.55 994.59 994.91 995.15 995.03 995.07 994.95 994.79 994.47 994.67 995.19 995.55 996.39 996.59 996.87 996.99 996.99 997.11 997.39 997.43 997.63 997.75 997.95 998.11 998.31 998.51 998.79 999.07 999.51 999.47 999.87 1001.19 1001.79 1002.43 1002.99
999.55 997.51 997.59 997.35 997.15 997.43 997.47 997.15 996.83 996.75 996.87 997.35 996.03 996.67 996.67 997.71 998.23 997.55 997.63 998.51 998.31 995.99 994.35 993.91 994.03 994.15 994.47 994.71 994.67 994.23 994.47 994.27 994.47 994.71 994.71 994.75 994.79 994.63 994.47 995.07 995.79 996.39 996.67 997.07 997.19 997.11 996.95 996.91 997.11 997.35 997.75 997.87 998.07 998.31 998.39 998.71 998.95 998.99 999.75 1000.63 1001.39 1001.99 1002.47
1000.79 998.55 997.95 998.07 997.83 998.75 1000.11 998.75 997.15 996.15 995.31 995.39 995.51 994.87 993.99 994.83 995.95 997.71 998.83 998.11 995.83 994.91 994.11 995.19 994.59 994.07 994.31 994.35 994.11 994.19 993.75 993.83 993.99 994.27 994.27 994.31 994.59 994.31 994.95 995.39 995.55 995.87 996.23 996.43 996.51 996.31 996.27 996.47 996.71 996.71 996.87 997.39 997.91 997.87 998.19 998.31 998.51 998.91 999.43 1000.07 1001.03 1002.23 1002.79
1000.83 999.11 998.63 998.39 1000.43 1003.51 1001.79 996.19 995.39 995.91 996.43 995.27 996.07 996.03 995.23 994.39 994.59 995.51 995.07 995.19 994.51 994.47 994.55 995.23 995.27 994.39 993.67 993.75 993.35 992.79 993.31 993.83 993.95 993.83 993.71 993.51 993.67 993.55 994.19 994.63 994.67 995.03 995.43 995.55 995.79 995.99 995.95 995.79 995.71 995.87 996.19 996.79 997.11 997.15 997.55 997.91 998.43 998.79 999.39 1000.03 1000.83 1002.07 1002.67
1000.75 999.39 999.43 1001.47 1003.43 1001.47 996.39 995.07 994.67 994.63 994.95 995.19 995.39 994.55 993.75 993.95 994.07 994.07 994.31 994.27 994.27 993.95 993.83 994.03 993.91 993.39 992.67 992.31 992.79 992.91 992.59 992.67 993.07 993.63 993.35 993.27 993.47 994.11 994.27 994.35 994.59 995.31 995.07 995.03 995.11 995.55 995.59 995.43 995.51 995.79 996.23 996.35 996.71 996.87 997.15 997.83 998.19 998.79 999.27 999.91 1000.83 1001.99 1002.51
999.47 1000.55 1001.35 1004.51 1001.91 997.31 995.51 994.75 994.39 993.83 994.31 994.47 995.43 995.91 994.27 993.23 993.39 993.67 994.23 993.83 993.35 993.07 992.83 992.47 992.35 992.79 992.71 992.23 991.95 992.27 992.27 991.83 991.71 992.63 992.83 992.67 993.23 993.83 993.51 994.03 994.19 994.43 994.59 994.59 994.43 994.63 994.39 994.79 995.07 995.27 995.79 995.75 996.23 996.47 996.63 997.51 998.11 998.63 999.19 999.83 1000.55 1001.71 1002.27
1001.51 1000.95 1000.87 1000.87 998.07 998.15 996.83 996.95 996.11 995.59 996.79 996.39 996.95 1000.27 998.19 994.79 993.15 992.55 993.23 993.27 992.99 992.47 992.19 992.43 992.11 991.67 991.99 992.95 992.67 991.63 992.03 992.07 991.91 991.79 991.99 992.11 992.39 992.55 992.79 992.91 993.47 993.43 993.47 993.79 993.67 993.99 994.19 994.27 994.71 995.07 995.11 995.23 995.63 996.11 996.87 997.39 997.99 998.59 999.07 999.71 1000.27 1001.31 1002.03
999.19 1000.87 1001.39 1000.79 1001.03 1002.11 998.95 996.31 996.19 995.07 995.39 995.47 996.27 998.31 998.23 994.99 994.11 992.55 992.23 993.11 992.99 992.79 992.35 992.63 992.43 991.79 993.03 994.39 993.91 992.43 991.71 991.35 991.83 991.87 991.63 991.47 991.47 991.67 992.03 992.19 992.55 993.11 993.27 993.31 993.35 993.75 993.95 994.07 994.27 994.43 994.67 995.15 995.71 996.47 997.11 997.55 998.19 998.75 999.23 999.87 1000.35 1000.99 1001.51
1000.03 1000.55 1001.75 1001.35 1001.31 999.67 996.91 997.31 996.15 995.63 995.15 995.79 995.75 998.51 999.87 995.83 994.15 992.99 992.35 992.31 992.11 992.03 992.19 992.07 992.39 993.71 995.83 996.03 994.83 992.47 991.55 991.03 990.79 991.79 991.95 991.67 991.35 991.43 991.55 992.07 992.67 993.07 993.19 993.15 993.19 993.51 993.75 994.31 994.31 994.39 994.87 995.31 995.91 996.67 997.07 997.63 998.11 998.79 999.31 999.75 1000.15 1000.71 1001.23
999.67 999.95 1000.87 1000.71 998.59 999.39 998.79 996.35 995.99 995.35 995.31 995.55 997.31 1002.03 1000.35 995.63 994.59 993.71 993.47 993.03 991.95 991.67 991.55 991.47 992.39 993.67 996.03 995.87 993.75 991.95 990.71 990.23 990.91 991.91 992.19 991.95 991.67 991.55 991.23 991.31 991.75 992.55 992.95 993.39 993.83 993.87 994.11 994.31 994.11 994.47 994.75 995.43 996.31 996.79 997.31 997.59 998.27 998.87 999.27 999.75 1000.11 1000.51 1001.07
999.35 1000.11 999.51 998.79 997.51 995.63 996.31 996.07 995.59 995.19 995.31 996.91 1001.11 1002.27 998.79 996.87 995.83 995.31 994.83 994.51 993.51 991.59 990.99 991.15 992.67 991.63 991.75 992.19 992.07 991.55 991.39 991.67 991.71 991.47 991.39 991.51 991.55 991.55 991.39 991.55 991.83 992.79 993.23 993.47 993.95 993.83 993.71 993.55 993.75 994.15 994.83 995.87 996.79 997.19 997.35 997.79 998.43 998.55 998.91 999.55 1000.15 1000.71 1001.19
999.03 998.87 999.91 999.39 997.55 995.15 994.83 995.31 995.23 994.99 997.55 1001.67 1000.39 997.35 996.47 996.11 996.27 995.39 995.27 995.15 994.07 992.59 991.15 990.95 990.75 989.95 990.55 991.15 991.55 991.91 992.11 992.19 992.23 991.91 991.63 991.51 991.43 991.35 991.27 991.79 992.43 992.99 993.23 993.71 993.79 993.71 993.67 993.67 993.83 994.51 995.23 996.31 997.11 997.43 997.63 998.07 998.15 998.15 998.87 999.51 1000.11 1000.79 1001.35
997.71 998.27 999.07 999.55 1001.03 997.23 995.31 995.51 995.75 995.99 999.03 998.35 998.03 996.67 995.91 995.79 995.95 995.87 995.51 995.19 994.59 993.47 992.47 991.35 991.15 991.39 991.11 991.35 992.51 992.35 992.55 992.63 992.67 992.35 992.11 992.31 992.15 992.11 992.63 992.99 992.75 992.91 993.43 993.63 993.75 994.15 993.95 994.03 994.43 994.95 995.79 996.87 997.39 997.63 998.11 998.15 997.87 998.35 998.91 999.55 1000.35 1001.07 1001.63
998.75 998.43 999.11 999.07 995.67 996.15 995.11 995.31 997.35 996.55 996.43 996.23 996.19 996.55 996.79 996.07 996.11 996.31 996.27 996.55 994.79 993.31 992.51 991.67 990.95 991.07 991.87 992.31 992.15 993.07 993.11 992.43 992.15 992.07 992.15 992.15 992.27 992.75 992.71 992.55 992.63 992.51 993.35 993.91 994.43 994.39 994.31 994.43 994.59 994.99 995.79 996.99 997.51 997.91 998.31 997.83 998.19 998.71 999.23 999.83 1000.47 1001.19 1001.83
996.23 996.63 995.43 996.43 995.35 995.39 994.99 995.31 996.15 995.83 995.63 995.59 995.79 996.19 996.83 997.35 996.71 995.71 996.51 996.35 995.11 993.75 992.79 992.67 992.99 993.27 992.43 993.11 993.55 993.55 992.59 992.35 992.47 992.83 992.95 992.75 992.71 992.43 992.43 992.75 993.07 993.51 994.19 994.55 994.67 994.71 994.63 994.67 994.79 995.27 995.91 996.95 997.71 998.27 998.23 998.23 998.91 999.31 999.75 1000.15 1000.71 1001.27 1001.83
995.35 995.47 995.63 995.51 995.19 995.35 995.31 995.11 995.27 995.63 995.95 995.51 995.59 996.27 997.03 997.03 997.23 996.55 997.51 996.39 994.15 993.43 993.67 994.59 995.11 995.43 995.35 993.99 993.23 993.27 992.55 992.55 992.35 992.47 992.51 992.51 992.55 992.83 993.31 993.87 993.91 994.03 994.27 994.59 994.95 995.43 995.59 995.55 995.83 996.03 996.35 996.83 997.95 998.31 998.19 998.51 998.91 999.55 1000.15 1000.79 1001.31 1001.67 1002.15
996.75 999.95 997.35 996.91 996.71 995.79 995.83 996.19 996.27 995.75 995.59 996.15 996.15 996.87 996.95 997.63 998.31 997.91 997.91 998.71 998.03 995.39 994.95 995.11 995.39 995.99 995.07 994.19 994.19 993.59 993.51 993.71 993.91 994.15 994.39 994.27 993.95 994.03 994.27 994.11 994.03 994.35 994.75 995.27 995.71 995.99 996.35 996.11 996.15 996.47 996.99 997.39 997.79 997.99 998.39 998.67 999.03 999.43 1000.15 1000.87 1001.87 1002.35 1002.75
996.83 998.63 997.95 997.99 997.79 997.95 997.35 997.23 997.91 997.35 996.47 996.27 996.67 996.83 997.23 997.75 998.75 998.75 999.19 999.55 999.47 997.11 996.03 996.19 995.55 995.35 995.95 996.31 996.27 995.95 995.67 995.47 995.19 995.15 995.23 995.31 995.31 995.11 994.87 994.83 994.91 995.15 995.51 996.03 996.51 996.79 996.99 996.79 996.75 997.07 997.59 998.11 998.31 998.39 998.59 998.83 999.19 999.59 1000.23 1000.79 1001.47 1002.15 1002.51
998.43 997.91 998.07 998.19 998.27 998.59 998.71 998.63 998.71 998.75 997.99 997.39 997.03 997.31 997.99 998.39 998.71 998.59 998.55 999.07 1000.19 999.23 997.15 996.23 996.19 996.51 996.59 996.35 996.31 996.71 997.15 996.63 996.19 995.99 995.95 995.91 995.87 995.75 995.83 995.87 995.91 996.31 996.59 997.03 997.39 997.63 997.83 997.67 997.71 997.91 998.19 998.39 998.47 998.71 998.91 999.03 999.31 999.79 1000.39 1000.91 1001.39 1001.83 1002.23
999.43 998.79 998.47 997.67 998.79 1000.39 999.91 999.51 999.47 999.35 998.75 998.47 998.83 998.79 998.79 998.47 998.63 999.11 999.39 999.31 998.35 997.75 997.27 996.95 996.83 997.11 997.19 996.83 996.83 997.31 997.55 997.47 996.99 996.55 996.39 996.27 996.31 996.35 996.23 996.31 996.59 996.91 997.15 997.47 997.83 998.03 998.11 997.99 998.11 998.35 998.51 998.51 998.43 998.31 998.55 999.15 999.59 1000.27 1000.75 1001.07 1001.51 1001.95 1002.31
999.15 996.79 996.83 996.91 998.03 999.55 1000.15 999.95 999.55 999.47 999.27 999.19 999.63 1000.55 1000.63 1000.11 999.71 999.31 999.23 999.63 999.31 998.43 997.55 996.95 997.07 997.51 997.67 997.71 997.47 997.71 997.99 998.11 997.83 997.35 996.99 997.03 996.99 996.95 996.79 997.11 997.35 997.59 997.75 997.83 997.99 998.19 998.23 998.15 998.27 998.35 998.35 998.31 998.39 998.43 998.87 999.15 999.59 1000.31 1000.71 1001.03 1001.43 1001.91 1002.55
997.03 996.71 997.27 997.55 998.07 999.75 1000.51 1000.03 999.67 999.47 999.47 999.99 1000.67 1000.87 1000.91 1000.91 1000.63 1000.23 1000.07 999.71 999.51 999.23 998.71 998.35 998.03 998.03 998.15 998.19 998.27 998.67 998.59 998.39 998.31 998.27 997.99 997.63 997.35 997.19 997.23 997.55 997.87 998.07 998.23 998.31 998.35 998.47 998.31 998.35 998.51 998.51 998.71 998.71 998.87 999.07 999.39 999.67 999.99 1000.47 1000.87 1001.35 1001.71 1002.07 1002.39
998.47 998.23 998.39 998.83 999.19 999.95 1000.27 1000.15 999.99 999.95 1000.19 1000.55 1001.35 1001.71 1001.79 1001.83 1001.67 1001.03 1000.63 1000.31 999.91 999.91 1000.07 999.67 999.07 998.75 998.75 998.79 998.75 998.95 999.03 998.83 998.67 998.63 998.63 998.63 998.47 997.99 997.79 997.87 998.23 998.43 998.47 998.39 998.39 998.43 998.51 998.63 998.67 998.75 999.07 999.15 999.07 999.31 999.67 999.87 1000.15 1000.63 1000.95 1001.23 1001.55 1001.95 1002.35
Thickness
5843 5838 5839 5850 5841 5827 5833 5833 5820 5833 5853 5840 5815 5812 5827 5822 5797 5805 5828 5831 5845 5860 5870 5885 5885 5882 5889 5891 5895 5900 5901 5907 5907 5903 5898 5886 5879 5881 5883 5880 5877 5876 5875 5875 5875 5873 5870 5867 5863 5861 5857 5853 5850 5846 5841 5837 5834 5832 5831 5829 5826 5824 5822
5835 5847 5840 5841 5848 5847 5834 5817 5827 5852 5856 5847 5828 5804 5805 5802 5785 5804 5828 5827 5836 5841 5846 5869 5876 5873 5879 5878 5885 5895 5900 5907 5907 5901 5893 5886 5885 5885 5884 5884 5881 5879 5878 5877 5878 5877 5875 5873 5868 5865 5861 5857 5853 5849 5845 5840 5835 5833 5832 5830 5828 5825 5823
5827 5843 5828 5817 5835 5851 5846 5842 5857 5853 5823 5816 5818 5799 5791 5787 5778 5797 5820 5826 5836 5842 5849 5861 5861 5867 5876 5875 5881 5889 5892 5898 5902 5899 5891 5888 5891 5887 5884 5885 5882 5882 5882 5879 5881 5880 5878 5876 5872 5868 5863 5860 5856 5852 5849 5845 5839 5836 5833 5831 5829 5826 5824
5824 5826 5812 5801 5813 5833 5844 5850 5858 5853 5833 5819 5814 5811 5808 5795 5783 5791 5803 5811 5825 5850 5871 5866 5856 5871 5882 5879 5882 5885 5889 5899 5907 5908 5901 5893 5889 5883 5882 5883 5883 5885 5885 5885 5886 5884 5882 5879 5874 5871 5866 5862 5859 5854 5850 5847 5842 5839 5835 5833 5830 5827 5825
5811 5806 5811 5813 5816 5820 5820 5821 5827 5836 5840 5833 5827 5831 5829 5813 5796 5792 5793 5796 5820 5865 5891 5879 5870 5883 5891 5888 5886 5886 5891 5903 5914 5919 5912 5900 5891 5881 5875 5877 5883 5889 5889 5890 5890 5887 5886 5882 5876 5874 5870 5866 5863 5857 5853 5849 5844 5841 5836 5833 5831 5828 5826
5796 5803 5827 5833 5830 5829 5822 5816 5820 5828 5835 5829 5814 5810 5824 5828 5816 5807 5802 5797 5824 5876 5899 5893 5889 5892 5896 5897 5893 5891 5896 5904 5915 5922 5915 5905 5894 5884 5878 5874 5881 5892 5893 5892 5892 5888 5885 5883 5878 5877 5875 5871 5866 5861 5858 5853 5848 5844 5838 5834 5832 5829 5827
5804 5814 5836 5839 5834 5837 5835 5829 5830 5833 5837 5831 5805 5788 5809 5829 5824 5823 5818 5804 5828 5880 5903 5901 5898 5897 5901 5906 5900 5898 5903 5909 5916 5920 5920 5913 5900 5893 5889 5877 5876 5891 5897 5895 5893 5889 5884 5883 5882 5878 5877 5874 5870 5866 5862 5857 5852 5847 5841 5837 5835 5830 5826
5814 5823 5832 5837 5836 5830 5822 5828 5837 5834 5833 5838 5830 5819 5825 5826 5816 5816 5810 5796 5824 5877 5901 5901 5898 5895 5898 5903 5902 5899 5900 5906 5912 5915 5915 5908 5900 5899 5896 5884 5881 5892 5898 5896 5892 5889 5886 5885 5883 5879 5878 5876 5873 5869 5866 5862 5857 5851 5845 5842 5838 5833 5827
5777 5792 5797 5805 5818 5818 5811 5821 5834 5835 5834 5838 5839 5837 5831 5815 5811 5819 5806 5793 5825 5871 5888 5889 5887 5883 5883 5890 5899 5901 5900 5902 5909 5915 5908 5898 5895 5898 5895 5889 5888 5894 5897 5893 5891 5890 5888 5887 5884 5881 5879 5876 5874 5872 5869 5867 5862 5855 5851 5848 5843 5837 5831
5748 5759 5770 5784 5801 5808 5809 5816 5826 5830 5831 5830 5831 5826 5808 5795 5811 5825 5809 5802 5833 5867 5875 5873 5873 5872 5873 5883 5897 5905 5903 5899 5902 5907 5904 5897 5895 5894 5892 5891 5890 5892 5895 5892 5891 5890 5889 5888 5886 5882 5879 5878 5876 5874 5872 5871 5866 5860 5857 5853 5848 5843 5837
5771 5775 5787 5806 5811 5805 5801 5805 5814 5821 5826 5832 5835 5820 5799 5798 5812 5815 5811 5818 5834 5851 5861 5862 5864 5867 5869 5876 5887 5893 5896 5897 5898 5899 5895 5894 5893 5889 5890 5891 5889 5891 5891 5890 5891 5890 5888 5889 5887 5884 5882 5878 5876 5875 5873 5872 5869 5864 5860 5857 5852 5846 5839
5789 5796 5805 5815 5812 5804 5804 5806 5808 5814 5822 5830 5827 5811 5805 5813 5809 5801 5816 5828 5824 5836 5856 5860 5863 5869 5868 5870 5876 5880 5885 5892 5899 5897 5888 5885 5886 5885 5885 5885 5885 5887 5888 5889 5891 5889 5889 5889 5886 5885 5883 5879 5878 5876 5873 5873 5871 5867 5864 5860 5854 5846 5839
5786 5796 5804 5810 5808 5806 5812 5815 5812 5812 5815 5818 5817 5814 5820 5823 5809 5808 5828 5827 5818 5835 5855 5860 5868 5874 5873 5874 5879 5881 5882 5885 5892 5892 5884 5883 5881 5873 5872 5876 5880 5882 5883 5887 5889 5887 5889 5888 5885 5884 5881 5878 5878 5876 5875 5874 5872 5869 5867 5862 5854 5846 5840
5781 5788 5793 5802 5805 5804 5810 5816 5818 5816 5812 5813 5814 5817 5827 5829 5820 5825 5835 5828 5827 5844 5856 5862 5873 5879 5883 5887 5887 5885 5882 5880 5885 5887 5885 5888 5885 5874 5871 5876 5879 5879 5880 5883 5886 5886 5886 5884 5883 5882 5879 5878 5877 5876 5876 5874 5871 5871 5869 5861 5852 5846 5843
5772 5783 5789 5792 5794 5798 5803 5807 5812 5816 5814 5815 5815 5815 5819 5820 5818 5828 5833 5825 5829 5850 5862 5867 5871 5875 5882 5886 5883 5882 5881 5880 5884 5885 5885 5889 5890 5886 5884 5883 5880 5879 5878 5877 5879 5881 5882 5882 5883 5881 5879 5879 5878 5876 5876 5873 5870 5871 5867 5858 5852 5848 5846
5755 5776 5781 5781 5789 5792 5790 5793 5802 5809 5811 5813 5818 5820 5820 5815 5811 5816 5817 5811 5820 5844 5861 5866 5869 5872 5872 5873 5877 5880 5881 5882 5884 5881 5882 5886 5887 5888 5888 5884 5880 5878 5876 5874 5875 5880 5882 5883 5883 5881 5880 5878 5876 5876 5875 5873 5872 5871 5866 5860 5853 5848 5846
5742 5764 5769 5775 5777 5759 5754 5777 5796 5802 5810 5814 5815 5822 5828 5827 5820 5810 5805 5811 5828 5848 5854 5852 5858 5865 5865 5866 5875 5878 5878 5882 5882 5880 5884 5887 5888 5888 5887 5883 5882 5880 5877 5876 5876 5879 5883 5884 5884 5884 5883 5878 5876 5876 5875 5873 5872 5870 5865 5861 5852 5845 5842
5733 5753 5763 5762 5746 5727 5745 5788 5802 5799 5805 5811 5810 5815 5825 5830 5828 5824 5822 5827 5838 5845 5844 5840 5846 5860 5867 5868 5873 5878 5880 5880 5879 5880 5886 5889 5890 5889 5886 5885 5885 5881 5879 5880 5879 5880 5882 5885 5887 5886 5884 5881 5878 5878 5876 5873 5871 5868 5863 5859 5851 5842 5839
5733 5747 5747 5725 5715 5737 5775 5801 5804 5801 5804 5806 5807 5815 5826 5831 5829 5829 5831 5832 5838 5841 5843 5846 5848 5856 5865 5869 5871 5876 5879 5881 5880 5879 5883 5889 5888 5885 5884 5886 5884 5879 5879 5881 5881 5882 5883 5886 5887 5885 5883 5883 5880 5878 5877 5873 5869 5866 5861 5857 5849 5841 5837
5730 5730 5720 5708 5724 5765 5788 5790 5796 5804 5801 5800 5795 5791 5807 5826 5830 5828 5828 5830 5839 5847 5849 5853 5854 5854 5860 5865 5869 5871 5874 5880 5883 5880 5883 5887 5884 5882 5884 5884 5882 5880 5882 5884 5886 5886 5887 5887 5886 5884 5884 5884 5881 5879 5877 5872 5867 5865 5860 5855 5848 5841 5836
5725 5717 5718 5727 5738 5754 5766 5771 5782 5788 5783 5786 5778 5761 5773 5807 5823 5828 5832 5830 5835 5845 5848 5848 5853 5860 5859 5851 5855 5866 5871 5874 5878 5880 5884 5888 5884 5884 5886 5886 5885 5885 5885 5887 5888 5887 5887 5887 5886 5884 5886 5885 5881 5877 5873 5868 5865 5862 5857 5853 5847 5840 5835
5725 5718 5716 5723 5721 5727 5748 5762 5772 5778 5777 5780 5775 5754 5758 5789 5810 5823 5832 5830 5831 5840 5842 5840 5847 5853 5842 5827 5835 5858 5869 5872 5875 5875 5880 5887 5887 5887 5887 5886 5886 5884 5884 5887 5888 5886 5886 5885 5885 5885 5884 5882 5878 5872 5868 5865 5861 5857 5853 5849 5845 5840 5835
5718 5713 5707 5713 5717 5726 5746 5757 5766 5775 5775 5780 5773 5749 5750 5784 5807 5815 5824 5828 5832 5839 5840 5841 5842 5831 5812 5807 5827 5853 5864 5870 5872 5870 5873 5881 5885 5886 5887 5887 5884 5881 5882 5884 5884 5884 5882 5880 5881 5882 5880 5877 5872 5866 5864 5861 5856 5853 5849 5845 5843 5839 5834
5712 5711 5708 5721 5732 5735 5743 5753 5763 5771 5774 5774 5753 5724 5737 5778 5794 5795 5802 5811 5822 5837 5841 5839 5835 5821 5806 5810 5832 5852 5862 5866 5866 5864 5867 5873 5877 5880 5884 5886 5884 5880 5878 5877 5876 5877 5878 5877 5880 5879 5875 5871 5865 5860 5859 5857 5852 5849 5846 5842 5840 5836 5831
5711 5709 5707 5718 5736 5746 5750 5753 5762 5769 5766 5751 5729 5720 5743 5769 5776 5781 5789 5792 5803 5825 5836 5835 5834 5833 5829 5828 5835 5844 5849 5850 5852 5858 5864 5868 5871 5875 5877 5879 5878 5874 5871 5871 5870 5871 5875 5877 5878 5876 5871 5865 5858 5855 5854 5851 5847 5847 5843 5839 5835 5830 5826
5712 5714 5711 5711 5725 5746 5754 5754 5762 5763 5743 5721 5724 5745 5761 5765 5768 5778 5783 5783 5791 5808 5821 5828 5833 5836 5836 5831 5830 5832 5834 5835 5841 5849 5857 5860 5863 5867 5869 5869 5869 5866 5865 5865 5865 5867 5871 5873 5872 5870 5864 5856 5850 5849 5847 5845 5845 5844 5840 5835 5829 5824 5820
5710 5711 5708 5704 5713 5735 5750 5750 5750 5749 5735 5726 5739 5756 5762 5763 5767 5771 5770 5775 5785 5795 5807 5817 5823 5825 5824 5822 5822 5822 5823 5827 5834 5841 5847 5850 5853 5855 5856 5857 5860 5861 5859 5858 5859 5862 5865 5865 5864 5861 5855 5847 5844 5843 5840 5840 5842 5839 5833 5829 5822 5816 5811
5712 5707 5710 5714 5722 5736 5746 5746 5742 5742 5745 5748 5749 5750 5751 5754 5759 5761 5759 5763 5776 5789 5799 5808 5811 5812 5813 5813 5810 5809 5813 5821 5828 5833 5837 5841 5842 5844 5847 5850 5854 5855 5852 5851 5852 5854 5857 5858 5859 5857 5850 5842 5837 5834 5833 5835 5834 5829 5825 5821 5815 5809 5804
5722 5719 5722 5728 5732 5737 5743 5747 5745 5743 5747 5751 5750 5745 5741 5742 5749 5755 5753 5755 5771 5786 5790 5793 5794 5790 5791 5797 5797 5798 5807 5817 5822 5825 5828 5831 5835 5839 5841 5842 5844 5844 5843 5843 5844 5845 5848 5851 5851 5848 5844 5837 5829 5826 5828 5828 5824 5820 5817 5812 5808 5804 5800
5717 5716 5719 5723 5726 5731 5738 5740 5740 5740 5741 5745 5746 5742 5736 5734 5739 5744 5742 5744 5762 5776 5777 5776 5774 5769 5774 5786 5792 5796 5805 5810 5811 5815 5819 5824 5829 5831 5830 5831 5834 5836 5837 5837 5836 5836 5838 5839 5839 5838 5836 5831 5825 5822 5822 5821 5817 5814 5809 5802 5797 5795 5791
5697 5693 5699 5708 5712 5718 5725 5727 5728 5734 5737 5738 5738 5734 5730 5726 5725 5727 5726 5723 5733 5751 5758 5757 5756 5757 5763 5771 5778 5785 5791 5794 5797 5802 5805 5809 5814 5817 5819 5824 5827 5829 5829 5828 5827 5826 5826 5828 5830 5828 5824 5822 5819 5818 5818 5816 5812 5808 5802 5795 5790 5786 5784
5690 5684 5688 5696 5698 5703 5711 5712 5712 5719 5725 5728 5730 5726 5722 5718 5713 5716 5719 5712 5712 5728 5742 5747 5750 5753 5753 5755 5761 5766 5771 5776 5784 5789 5791 5795 5800 5804 5809 5813 5816 5817 5817 5816 5815 5814 5814 5817 5819 5817 5814 5811 5810 5811 5809 5808 5805 5801 5797 5793 5788 5783 5779
5678 5677 5683 5689 5689 5689 5695 5698 5698 5702 5708 5715 5717 5715 5714 5713 5708 5709 5713 5711 5710 5719 5730 5739 5745 5746 5746 5751 5756 5755 5756 5763 5772 5777 5782 5786 5789 5792 5797 5800 5803 5805 5804 5802 5802 5801 5801 5804 5805 5804 5803 5801 5801 5802 5800 5797 5796 5793 5789 5787 5784 5780 5776
5665 5673 5685 5691 5686 5679 5680 5686 5688 5691 5696 5700 5701 5699 5700 5702 5702 5702 5705 5708 5711 5718 5727 5733 5736 5736 5738 5744 5747 5747 5748 5753 5760 5767 5773 5777 5780 5784 5787 5789 5791 5792 5792 5792 5792 5791 5792 5795 5795 5794 5793 5794 5795 5798 5795 5791 5789 5785 5782 5780 5778 5773 5769
5669 5685 5691 5692 5686 5676 5672 5678 5681 5683 5688 5690 5686 5683 5684 5687 5693 5697 5699 5700 5704 5713 5722 5728 5731 5730 5731 5733 5736 5738 5740 5743 5750 5757 5763 5767 5771 5774 5777 5778 5779 5779 5780 5782 5782 5782 5784 5787 5787 5787 5788 5789 5789 5790 5788 5786 5783 5779 5776 5774 5770 5765 5761
5674 5685 5684 5684 5682 5672 5668 5673 5677 5678 5680 5678 5674 5673 5674 5676 5681 5687 5691 5695 5699 5704 5710 5717 5722 5723 5724 5725 5727 5728 5730 5736 5742 5746 5750 5755 5761 5765 5769 5769 5768 5768 5770 5772 5774 5775 5778 5779 5780 5780 5780 5781 5781 5780 5778 5777 5775 5772 5769 5767 5763 5759 5756
5668 5672 5672 5674 5672 5666 5664 5668 5670 5670 5671 5669 5666 5665 5666 5667 5671 5676 5682 5687 5693 5696 5697 5701 5709 5714 5716 5718 5720 5722 5725 5730 5734 5737 5740 5743 5746 5752 5757 5758 5758 5760 5762 5764 5767 5769 5770 5771 5772 5772 5771 5771 5772 5771 5770 5770 5768 5765 5762 5760 5757 5754 5750